Weslaco, TX

7:01 AM CST on January 22, 2018 (GMT -0600)
Weslaco

Weather History for KT65 - July, 2014

Change the Weather History Date:

Friday, July 4, 2014

  Actual Average (KMFE) Record (KMFE)
Temperature  
Mean Temperature 82 °F -  
Max Temperature 93 °F 94 °F 107 °F (2009)
Min Temperature 72 °F 74 °F 70 °F (1985)
Cooling Degree Days 18    
Growing Degree Days 32 (Base 50)    
Moisture  
Dew Point 70 °F    
Average Humidity 72    
Maximum Humidity 91    
Minimum Humidity 38    
Precipitation  
Precipitation 0.00 in - - ()
Sea Level Pressure  
Sea Level Pressure 30.11 in    
Wind  
Wind Speed 3 mph (ESE)    
Max Wind Speed 15 mph    
Max Gust Speed 20 mph    
Visibility 8 miles    
Events Rain , Thunderstorm    
Averages and records for this station are not official NWS values.
T = Trace of Precipitation, MM = Missing Value Source: NWS Daily Summary

Daily Weather History Graph

Daily Weather History Graph

Search for Another Location

Airport or City:

Trip Planner

Search our weather history database for the weather conditions in past years. The results will help you decide how hot, cold, wet, or windy it might be!

Date:

Astronomy

Jul. 04, 2014 Rise Set
Actual Time 6:44 AM CDT 8:28 PM CDT
Civil Twilight 6:18 AM CDT 8:54 PM CDT
Nautical Twilight 5:47 AM CDT 9:25 PM CDT
Astronomical Twilight 5:14 AM CDT 9:58 PM CDT
Moon 1:00 PM CDT (7/4) 12:29 AM CDT (7/4)
Length of Visible Light 14h 35m
Length of Day
13h 43m
Waxing Crescent, 42% of the Moon is Illuminated
Jul 4
Waxing Crescent
Jul 5
First Quarter
Jul 12
Full
Jul 18
Last Quarter
Jul 26
New

Hourly Weather History & Observations

Time (CDT) Temp. Heat Index Dew Point Humidity Pressure Visibility Wind Dir Wind Speed Gust Speed Precip Events Conditions
12:15 AM 78.8 °F - 71.6 °F 78% 30.12 in 10.0 mi East 3.5 mph - N/A   Clear
12:35 AM 78.3 °F - 71.6 °F 80% 30.12 in 10.0 mi East 3.5 mph - N/A   Clear
12:55 AM 77.9 °F - 71.6 °F 81% 30.12 in 10.0 mi East 3.5 mph - N/A   Clear
1:15 AM 77.5 °F - 71.6 °F 82% 30.10 in 10.0 mi Calm Calm - N/A   Clear
1:35 AM 77.0 °F - 71.4 °F 83% 30.10 in 7.0 mi Calm Calm - N/A   Clear
1:55 AM 77.4 °F - 71.6 °F 82% 30.10 in 10.0 mi Calm Calm - N/A   Clear
2:15 AM 77.5 °F - 71.6 °F 82% 30.10 in 7.0 mi ESE 3.5 mph - N/A   Clear
2:35 AM 77.0 °F - 71.2 °F 82% 30.09 in 10.0 mi Calm Calm - N/A   Clear
2:55 AM 76.3 °F - 71.2 °F 84% 30.09 in 10.0 mi Calm Calm - N/A   Clear
3:15 AM 77.0 °F - 71.4 °F 83% 30.09 in 7.0 mi Calm Calm - N/A   Clear
3:35 AM 76.5 °F - 71.2 °F 84% 30.09 in 7.0 mi Calm Calm - N/A   Clear
3:55 AM 75.7 °F - 70.9 °F 85% 30.08 in 10.0 mi Calm Calm - N/A   Clear
4:15 AM 75.6 °F - 71.2 °F 86% 30.08 in 10.0 mi Calm Calm - N/A   Clear
4:35 AM 75.6 °F - 71.1 °F 86% 30.08 in 7.0 mi Calm Calm - N/A   Clear
4:55 AM 75.4 °F - 71.1 °F 86% 30.08 in 10.0 mi SW 3.5 mph - N/A   Clear
5:15 AM 74.5 °F - 70.3 °F 87% 30.07 in 10.0 mi Calm Calm - N/A   Clear
5:35 AM 73.4 °F - 70.0 °F 89% 30.08 in 7.0 mi Calm Calm - N/A   Clear
5:55 AM 72.7 °F - 69.6 °F 90% 30.08 in 7.0 mi Calm Calm - N/A   Clear
6:15 AM 72.7 °F - 69.8 °F 91% 30.08 in 7.0 mi Calm Calm - N/A   Clear
6:35 AM 72.5 °F - 69.4 °F 90% 30.10 in 7.0 mi Calm Calm - N/A   Clear
6:55 AM 72.5 °F - 69.4 °F 90% 30.10 in 7.0 mi Calm Calm - N/A   Clear
7:15 AM 72.7 °F - 69.8 °F 91% 30.10 in 7.0 mi Calm Calm - N/A   Clear
7:35 AM 73.6 °F - 70.3 °F 90% 30.11 in 5.0 mi Calm Calm - N/A   Clear
7:55 AM 75.2 °F - 71.4 °F 88% 30.11 in 5.0 mi NNE 4.6 mph - N/A   Clear
8:15 AM 77.2 °F - 72.1 °F 84% 30.12 in 7.0 mi NNE 4.6 mph - N/A   Clear
8:35 AM 79.3 °F - 72.5 °F 79% 30.13 in 5.0 mi Calm Calm - N/A   Haze
8:55 AM 80.8 °F 85.2 °F 72.5 °F 76% 30.14 in 7.0 mi East 3.5 mph - N/A   Clear
9:15 AM 82.0 °F 87.2 °F 72.7 °F 73% 30.14 in 7.0 mi East 3.5 mph - N/A   Clear
9:55 AM 83.7 °F 89.4 °F 72.5 °F 69% 30.14 in 7.0 mi SE 5.8 mph - N/A   Scattered Clouds
10:15 AM 84.2 °F 89.9 °F 72.3 °F 67% 30.14 in 10.0 mi Calm Calm - N/A   Mostly Cloudy
10:35 AM 87.3 °F 92.8 °F 70.7 °F 58% 30.14 in 7.0 mi SE 5.8 mph - N/A   Scattered Clouds
11:15 AM 88.9 °F 93.0 °F 68.9 °F 51% 30.13 in 7.0 mi ESE 3.5 mph - N/A   Scattered Clouds
11:35 AM 88.7 °F 93.5 °F 69.6 °F 53% 30.13 in 10.0 mi East 4.6 mph - N/A   Scattered Clouds
11:55 AM 88.5 °F 91.9 °F 67.6 °F 50% 30.13 in 10.0 mi ESE 9.2 mph 16.1 mph N/A   Mostly Cloudy
12:15 PM 90.0 °F 93.2 °F 67.3 °F 47% 30.13 in 10.0 mi East 8.1 mph 17.3 mph N/A   Mostly Cloudy
12:35 PM 90.1 °F 93.5 °F 67.5 °F 47% 30.13 in 10.0 mi East 6.9 mph - N/A   Mostly Cloudy
12:55 PM 91.4 °F 94.5 °F 66.4 °F 44% 30.12 in 10.0 mi ESE 10.4 mph - N/A   Scattered Clouds
1:15 PM 93.6 °F 95.9 °F 65.5 °F 39% 30.11 in 7.0 mi East 8.1 mph 16.1 mph N/A   Scattered Clouds
1:35 PM 92.8 °F 95.6 °F 66.0 °F 41% 30.11 in 7.0 mi ESE 15.0 mph 19.6 mph N/A Thunderstorm Scattered Clouds
1:55 PM 87.8 °F 91.1 °F 67.5 °F 51% 30.10 in 10.0 mi ESE 13.8 mph - N/A   Scattered Clouds
2:15 PM 85.3 °F 90.1 °F 70.3 °F 61% 30.11 in 7.0 mi South 10.4 mph 17.3 mph N/A Rain Light Rain
2:35 PM 86.2 °F 91.1 °F 70.2 °F 59% 30.10 in 10.0 mi South 4.6 mph - N/A   Scattered Clouds
2:55 PM 91.9 °F 95.4 °F 67.5 °F 44% 30.10 in 10.0 mi SE 9.2 mph - N/A   Scattered Clouds
3:35 PM 93.2 °F 94.9 °F 64.4 °F 38% 30.10 in 10.0 mi East 15.0 mph 19.6 mph N/A   Mostly Cloudy